Time,TemperatureF,DewpointF,PressureIn,WindDirection,WindDirectionDegrees,WindSpeedMPH,WindSpeedGustMPH,Humidity,HourlyPrecipIn,Conditions,Clouds,dailyrainin,SoftwareType,DateUTC
2013-01-23 00:02:00,3.0,-2.0,30.31,SE,137,0.0,-999.0,78,-99.99,,,-99.99,,2013-01-23 06:02:00,
2013-01-23 00:12:00,3.0,-2.0,30.31,SE,137,0.0,-999.0,78,-99.99,,,-99.99,,2013-01-23 06:12:00,
2013-01-23 00:22:00,4.0,-1.0,30.30,SE,138,0.0,-999.0,78,-99.99,,,-99.99,,2013-01-23 06:22:00,
2013-01-23 00:32:00,4.0,-1.0,30.30,SE,138,0.0,-999.0,78,-99.99,,,-99.99,,2013-01-23 06:32:00,
2013-01-23 00:42:00,4.0,-1.0,30.30,SE,138,0.0,-999.0,78,-99.99,,,-99.99,,2013-01-23 06:42:00,
2013-01-23 00:52:00,4.0,-1.0,30.29,North,360,0.0,-999.0,78,-99.99,,,-99.99,,2013-01-23 06:52:00,
2013-01-23 01:02:00,4.0,-1.0,30.29,North,360,0.0,-999.0,79,-99.99,,,-99.99,,2013-01-23 07:02:00,
2013-01-23 01:12:00,4.0,-1.0,30.29,North,360,0.0,-999.0,79,-99.99,,,-99.99,,2013-01-23 07:12:00,
2013-01-23 01:22:00,4.0,-1.0,30.29,North,360,0.0,-999.0,79,-99.99,,,-99.99,,2013-01-23 07:22:00,
2013-01-23 01:33:00,4.0,-1.0,30.28,SE,137,0.0,-999.0,79,-99.99,,,-99.99,,2013-01-23 07:33:00,
2013-01-23 01:42:00,4.0,-1.0,30.28,SE,137,0.0,-999.0,79,-99.99,,,-99.99,,2013-01-23 07:42:00,
2013-01-23 01:52:00,5.0,0.0,30.29,SE,138,0.0,-999.0,79,-99.99,,,-99.99,,2013-01-23 07:52:00,
2013-01-23 02:02:00,5.0,0.0,30.27,SE,137,0.0,-999.0,80,-99.99,,,-99.99,,2013-01-23 08:02:00,
2013-01-23 02:13:00,5.0,0.0,30.27,SE,137,0.0,-999.0,80,-99.99,,,-99.99,,2013-01-23 08:13:00,
2013-01-23 02:22:00,5.0,0.0,30.27,SE,138,0.0,-999.0,80,-99.99,,,-99.99,,2013-01-23 08:22:00,
2013-01-23 02:33:00,5.0,0.0,30.27,SE,138,0.0,-999.0,80,-99.99,,,-99.99,,2013-01-23 08:33:00,
2013-01-23 02:42:00,5.0,0.0,30.27,SE,138,0.0,-999.0,80,-99.99,,,-99.99,,2013-01-23 08:42:00,
2013-01-23 02:52:00,5.0,0.0,30.27,SE,138,0.0,-999.0,80,-99.99,,,-99.99,,2013-01-23 08:52:00,
2013-01-23 03:03:00,5.0,0.0,30.27,SE,137,0.0,-999.0,81,-99.99,,,-99.99,,2013-01-23 09:03:00,
2013-01-23 03:12:00,5.0,0.0,30.27,SE,137,0.0,-999.0,81,-99.99,,,-99.99,,2013-01-23 09:12:00,
2013-01-23 03:22:00,5.0,0.0,30.26,SE,138,0.0,-999.0,81,-99.99,,,-99.99,,2013-01-23 09:22:00,
2013-01-23 03:32:00,5.0,1.0,30.26,SE,138,0.0,-999.0,82,-99.99,,,-99.99,,2013-01-23 09:32:00,
2013-01-23 03:43:00,5.0,1.0,30.26,SE,138,0.0,-999.0,82,-99.99,,,-99.99,,2013-01-23 09:43:00,
2013-01-23 03:52:00,4.0,0.0,30.26,SE,138,0.0,-999.0,82,-99.99,,,-99.99,,2013-01-23 09:52:00,
2013-01-23 04:03:00,4.0,0.0,30.26,SE,138,0.0,-999.0,82,-99.99,,,-99.99,,2013-01-23 10:03:00,
2013-01-23 04:12:00,4.0,0.0,30.26,SE,138,0.0,-999.0,82,-99.99,,,-99.99,,2013-01-23 10:12:00,
2013-01-23 04:23:00,3.0,-1.0,30.25,SE,138,0.0,-999.0,83,-99.99,,,-99.99,,2013-01-23 10:23:00,
2013-01-23 04:33:00,3.0,-1.0,30.25,SE,137,0.0,-999.0,83,-99.99,,,-99.99,,2013-01-23 10:33:00,
2013-01-23 04:43:00,3.0,-1.0,30.25,SE,137,0.0,-999.0,83,-99.99,,,-99.99,,2013-01-23 10:43:00,
2013-01-23 04:52:00,3.0,-1.0,30.25,SE,137,0.0,-999.0,84,-99.99,,,-99.99,,2013-01-23 10:52:00,
2013-01-23 05:02:00,4.0,0.0,30.25,SE,138,0.0,-999.0,84,-99.99,,,-99.99,,2013-01-23 11:02:00,
2013-01-23 05:12:00,4.0,0.0,30.25,SE,138,0.0,-999.0,84,-99.99,,,-99.99,,2013-01-23 11:12:00,
2013-01-23 05:22:00,4.0,0.0,30.25,SE,138,0.0,-999.0,84,-99.99,,,-99.99,,2013-01-23 11:22:00,
2013-01-23 05:33:00,4.0,0.0,30.25,SE,138,0.0,-999.0,84,-99.99,,,-99.99,,2013-01-23 11:33:00,
2013-01-23 05:43:00,4.0,0.0,30.25,SE,138,0.0,-999.0,84,-99.99,,,-99.99,,2013-01-23 11:43:00,
2013-01-23 05:53:00,4.0,0.0,30.25,SE,138,0.0,-999.0,84,-99.99,,,-99.99,,2013-01-23 11:53:00,
2013-01-23 06:03:00,4.0,0.0,30.25,SE,138,0.0,-999.0,84,-99.99,,,-99.99,,2013-01-23 12:03:00,
2013-01-23 06:12:00,4.0,0.0,30.25,SE,138,0.0,-999.0,84,-99.99,,,-99.99,,2013-01-23 12:12:00,
2013-01-23 06:22:00,4.0,1.0,30.26,SE,138,0.0,-999.0,85,-99.99,,,-99.99,,2013-01-23 12:22:00,
2013-01-23 06:33:00,5.0,1.0,30.26,SE,138,0.0,-999.0,84,-99.99,,,-99.99,,2013-01-23 12:33:00,
2013-01-23 06:43:00,5.0,1.0,30.26,SE,138,0.0,-999.0,84,-99.99,,,-99.99,,2013-01-23 12:43:00,
2013-01-23 06:52:00,5.0,2.0,30.26,SSE,157,0.0,-999.0,85,-99.99,,,-99.99,,2013-01-23 12:52:00,
2013-01-23 07:03:00,5.0,1.0,30.26,SSW,205,1.0,-999.0,84,-99.99,,,-99.99,,2013-01-23 13:03:00,
2013-01-23 07:13:00,5.0,1.0,30.26,SSW,205,1.0,-999.0,84,-99.99,,,-99.99,,2013-01-23 13:13:00,
2013-01-23 07:23:00,4.0,1.0,30.26,West,275,1.0,-999.0,85,-99.99,,,-99.99,,2013-01-23 13:23:00,
2013-01-23 07:33:00,4.0,1.0,30.27,NW,304,2.0,-999.0,85,-99.99,,,-99.99,,2013-01-23 13:33:00,
2013-01-23 07:42:00,4.0,1.0,30.27,NW,304,2.0,-999.0,85,-99.99,,,-99.99,,2013-01-23 13:42:00,
2013-01-23 07:53:00,4.0,1.0,30.27,NW,306,2.0,-999.0,85,-99.99,,,-99.99,,2013-01-23 13:53:00,
2013-01-23 08:02:00,4.0,1.0,30.28,NW,314,3.0,-999.0,85,-99.99,,,-99.99,,2013-01-23 14:02:00,
2013-01-23 08:12:00,4.0,1.0,30.28,NW,314,3.0,-999.0,85,-99.99,,,-99.99,,2013-01-23 14:12:00,
2013-01-23 08:23:00,4.0,1.0,30.29,North,360,4.0,-999.0,85,-99.99,,,-99.99,,2013-01-23 14:23:00,
2013-01-23 08:33:00,4.0,0.0,30.29,North,360,4.0,-999.0,84,-99.99,,,-99.99,,2013-01-23 14:33:00,
2013-01-23 08:43:00,4.0,0.0,30.29,North,360,4.0,-999.0,84,-99.99,,,-99.99,,2013-01-23 14:43:00,
2013-01-23 08:53:00,3.0,-1.0,30.30,North,360,3.0,-999.0,84,-99.99,,,-99.99,,2013-01-23 14:53:00,
2013-01-23 09:03:00,3.0,-1.0,30.30,North,360,3.0,-999.0,84,-99.99,,,-99.99,,2013-01-23 15:03:00,
2013-01-23 09:12:00,3.0,-1.0,30.30,North,360,3.0,-999.0,84,-99.99,,,-99.99,,2013-01-23 15:12:00,
2013-01-23 09:23:00,3.0,-1.0,30.32,North,360,4.0,-999.0,81,-99.99,,,-99.99,,2013-01-23 15:23:00,
2013-01-23 09:33:00,2.0,-3.0,30.33,NW,317,5.0,-999.0,80,-99.99,,,-99.99,,2013-01-23 15:33:00,
2013-01-23 09:43:00,2.0,-3.0,30.33,NW,317,5.0,-999.0,80,-99.99,,,-99.99,,2013-01-23 15:43:00,
2013-01-23 09:53:00,2.0,-3.0,30.35,NW,304,9.0,-999.0,79,-99.99,,,-99.99,,2013-01-23 15:53:00,
2013-01-23 10:03:00,1.0,-4.0,30.36,North,360,9.0,-999.0,79,-99.99,,,-99.99,,2013-01-23 16:03:00,
2013-01-23 10:12:00,1.0,-4.0,30.36,North,360,9.0,-999.0,79,-99.99,,,-99.99,,2013-01-23 16:12:00,
2013-01-23 10:23:00,1.0,-4.0,30.37,North,360,10.0,-999.0,78,-99.99,,,-99.99,,2013-01-23 16:23:00,
2013-01-23 10:32:00,1.0,-5.0,30.38,NW,319,7.0,-999.0,76,-99.99,,,-99.99,,2013-01-23 16:32:00,
2013-01-23 10:42:00,1.0,-5.0,30.38,NW,319,7.0,-999.0,76,-99.99,,,-99.99,,2013-01-23 16:42:00,
2013-01-23 10:53:00,2.0,-4.0,30.39,North,360,6.0,-999.0,75,-99.99,,,-99.99,,2013-01-23 16:53:00,
2013-01-23 11:03:00,2.0,-4.0,30.39,North,360,6.0,-999.0,75,-99.99,,,-99.99,,2013-01-23 17:03:00,
2013-01-23 11:12:00,2.0,-4.0,30.39,North,360,6.0,-999.0,75,-99.99,,,-99.99,,2013-01-23 17:12:00,
2013-01-23 11:23:00,2.0,-5.0,30.40,North,360,8.0,-999.0,73,-99.99,,,-99.99,,2013-01-23 17:23:00,
2013-01-23 11:33:00,1.0,-6.0,30.40,North,360,8.0,-999.0,73,-99.99,,,-99.99,,2013-01-23 17:33:00,
2013-01-23 11:42:00,1.0,-6.0,30.40,North,360,8.0,-999.0,73,-99.99,,,-99.99,,2013-01-23 17:42:00,
2013-01-23 11:52:00,1.0,-6.0,30.41,North,360,8.0,-999.0,72,-99.99,,,-99.99,,2013-01-23 17:52:00,
2013-01-23 12:03:00,1.0,-6.0,30.42,North,360,10.0,-999.0,70,-99.99,,,-99.99,,2013-01-23 18:03:00,
2013-01-23 12:12:00,1.0,-6.0,30.42,North,360,10.0,-999.0,70,-99.99,,,-99.99,,2013-01-23 18:12:00,
2013-01-23 12:23:00,1.0,-6.0,30.43,North,360,9.0,-999.0,72,-99.99,,,-99.99,,2013-01-23 18:23:00,
2013-01-23 12:33:00,1.0,-6.0,30.43,North,360,9.0,-999.0,72,-99.99,,,-99.99,,2013-01-23 18:33:00,
2013-01-23 12:43:00,1.0,-6.0,30.42,North,360,11.0,-999.0,71,-99.99,,,-99.99,,2013-01-23 18:43:00,
2013-01-23 12:52:00,0.0,-6.0,30.43,North,360,7.0,-999.0,75,-99.99,,,-99.99,,2013-01-23 18:52:00,
2013-01-23 13:03:00,0.0,-8.0,30.43,North,360,10.0,-999.0,69,-99.99,,,-99.99,,2013-01-23 19:03:00,
2013-01-23 13:13:00,0.0,-8.0,30.43,North,360,10.0,-999.0,69,-99.99,,,-99.99,,2013-01-23 19:13:00,
2013-01-23 13:23:00,0.0,-7.0,30.44,North,360,10.0,-999.0,70,-99.99,,,-99.99,,2013-01-23 19:23:00,
2013-01-23 13:33:00,0.0,-7.0,30.45,North,360,8.0,-999.0,73,-99.99,,,-99.99,,2013-01-23 19:33:00,
2013-01-23 13:43:00,0.0,-7.0,30.45,North,360,8.0,-999.0,73,-99.99,,,-99.99,,2013-01-23 19:43:00,
2013-01-23 13:52:00,0.0,-6.0,30.45,North,360,8.0,-999.0,75,-99.99,,,-99.99,,2013-01-23 19:52:00,
2013-01-23 14:03:00,0.0,-7.0,30.45,North,360,9.0,-999.0,73,-99.99,,,-99.99,,2013-01-23 20:03:00,
2013-01-23 14:13:00,0.0,-7.0,30.45,North,360,9.0,-999.0,73,-99.99,,,-99.99,,2013-01-23 20:13:00,
2013-01-23 14:23:00,0.0,-7.0,30.47,NW,324,10.0,-999.0,70,-99.99,,,-99.99,,2013-01-23 20:23:00,
2013-01-23 14:33:00,-1.0,-9.0,30.48,NW,321,13.0,-999.0,67,-99.99,,,-99.99,,2013-01-23 20:33:00,
2013-01-23 14:43:00,-1.0,-9.0,30.48,NW,321,13.0,-999.0,67,-99.99,,,-99.99,,2013-01-23 20:43:00,
2013-01-23 14:53:00,-1.0,-8.0,30.49,North,360,12.0,-999.0,71,-99.99,,,-99.99,,2013-01-23 20:53:00,
2013-01-23 15:03:00,-2.0,-9.0,30.50,North,360,11.0,-999.0,70,-99.99,,,-99.99,,2013-01-23 21:03:00,
2013-01-23 15:12:00,-2.0,-9.0,30.50,North,360,11.0,-999.0,70,-99.99,,,-99.99,,2013-01-23 21:12:00,
2013-01-23 15:23:00,-2.0,-10.0,30.50,North,360,11.0,-999.0,68,-99.99,,,-99.99,,2013-01-23 21:23:00,
2013-01-23 15:33:00,-2.0,-10.0,30.51,North,360,10.0,-999.0,68,-99.99,,,-99.99,,2013-01-23 21:33:00,
2013-01-23 15:42:00,-2.0,-10.0,30.51,North,360,10.0,-999.0,68,-99.99,,,-99.99,,2013-01-23 21:42:00,
2013-01-23 15:52:00,-3.0,-9.0,30.53,North,355,9.0,-999.0,73,-99.99,,,-99.99,,2013-01-23 21:52:00,
2013-01-23 16:02:00,-3.0,-11.0,30.53,North,360,8.0,-999.0,67,-99.99,,,-99.99,,2013-01-23 22:02:00,
2013-01-23 16:12:00,-3.0,-11.0,30.53,North,360,8.0,-999.0,67,-99.99,,,-99.99,,2013-01-23 22:12:00,
2013-01-23 16:23:00,-3.0,-11.0,30.55,North,360,11.0,-999.0,68,-99.99,,,-99.99,,2013-01-23 22:23:00,
2013-01-23 16:33:00,-3.0,-11.0,30.56,North,360,8.0,-999.0,69,-99.99,,,-99.99,,2013-01-23 22:33:00,
2013-01-23 16:42:00,-3.0,-11.0,30.56,North,360,8.0,-999.0,69,-99.99,,,-99.99,,2013-01-23 22:42:00,
2013-01-23 16:52:00,-5.0,-13.0,30.57,North,360,9.0,-999.0,66,-99.99,,,-99.99,,2013-01-23 22:52:00,
2013-01-23 17:03:00,-5.0,-13.0,30.57,North,360,9.0,-999.0,66,-99.99,,,-99.99,,2013-01-23 23:03:00,
2013-01-23 17:12:00,-5.0,-13.0,30.57,North,360,9.0,-999.0,66,-99.99,,,-99.99,,2013-01-23 23:12:00,
2013-01-23 17:23:00,-6.0,-14.0,30.59,NW,321,8.0,-999.0,68,-99.99,,,-99.99,,2013-01-23 23:23:00,
2013-01-23 17:33:00,-6.0,-14.0,30.59,NW,321,8.0,-999.0,68,-99.99,,,-99.99,,2013-01-23 23:33:00,
2013-01-23 17:43:00,-6.0,-14.0,30.59,NW,321,8.0,-999.0,68,-99.99,,,-99.99,,2013-01-23 23:43:00,
2013-01-23 17:53:00,-7.0,-15.0,30.61,North,360,10.0,-999.0,68,-99.99,,,-99.99,,2013-01-23 23:53:00,
2013-01-23 18:03:00,-7.0,-15.0,30.61,North,360,8.0,-999.0,67,-99.99,,,-99.99,,2013-01-24 00:03:00,
2013-01-23 18:12:00,-7.0,-15.0,30.61,North,360,8.0,-999.0,67,-99.99,,,-99.99,,2013-01-24 00:12:00,
2013-01-23 18:22:00,-8.0,-16.0,30.62,NW,325,7.0,-999.0,67,-99.99,,,-99.99,,2013-01-24 00:22:00,
2013-01-23 18:32:00,-8.0,-16.0,30.62,NW,325,7.0,-999.0,67,-99.99,,,-99.99,,2013-01-24 00:32:00,
2013-01-23 18:42:00,-8.0,-16.0,30.62,NW,325,7.0,-999.0,67,-99.99,,,-99.99,,2013-01-24 00:42:00,
2013-01-23 18:53:00,-8.0,-16.0,30.63,North,360,6.0,-999.0,68,-99.99,,,-99.99,,2013-01-24 00:53:00,
2013-01-23 19:03:00,-8.0,-16.0,30.64,North,360,5.0,-999.0,67,-99.99,,,-99.99,,2013-01-24 01:03:00,
2013-01-23 19:12:00,-8.0,-16.0,30.64,North,360,5.0,-999.0,67,-99.99,,,-99.99,,2013-01-24 01:12:00,
2013-01-23 19:23:00,-9.0,-17.0,30.65,NW,324,5.0,-999.0,68,-99.99,,,-99.99,,2013-01-24 01:23:00,
2013-01-23 19:33:00,-9.0,-16.0,30.64,North,360,6.0,-999.0,69,-99.99,,,-99.99,,2013-01-24 01:33:00,
2013-01-23 19:42:00,-9.0,-16.0,30.64,North,360,6.0,-999.0,69,-99.99,,,-99.99,,2013-01-24 01:42:00,
2013-01-23 19:52:00,-9.0,-16.0,30.65,North,360,6.0,-999.0,69,-99.99,,,-99.99,,2013-01-24 01:52:00,
2013-01-23 20:02:00,-10.0,-17.0,30.66,North,360,3.0,-999.0,70,-99.99,,,-99.99,,2013-01-24 02:02:00,
2013-01-23 20:12:00,-10.0,-17.0,30.66,North,360,3.0,-999.0,70,-99.99,,,-99.99,,2013-01-24 02:12:00,
2013-01-23 20:22:00,-10.0,-18.0,30.66,North,360,5.0,-999.0,68,-99.99,,,-99.99,,2013-01-24 02:22:00,
2013-01-23 20:33:00,-10.0,-18.0,30.66,North,360,3.0,-999.0,68,-99.99,,,-99.99,,2013-01-24 02:33:00,
2013-01-23 20:42:00,-10.0,-18.0,30.66,North,360,3.0,-999.0,68,-99.99,,,-99.99,,2013-01-24 02:42:00,
2013-01-23 20:52:00,-10.0,-18.0,30.66,North,360,3.0,-999.0,68,-99.99,,,-99.99,,2013-01-24 02:52:00,
2013-01-23 21:02:00,-11.0,-18.0,30.68,North,360,2.0,-999.0,69,-99.99,,,-99.99,,2013-01-24 03:02:00,
2013-01-23 21:12:00,-11.0,-18.0,30.68,North,360,2.0,-999.0,69,-99.99,,,-99.99,,2013-01-24 03:12:00,
2013-01-23 21:22:00,-11.0,-18.0,30.68,North,360,3.0,-999.0,70,-99.99,,,-99.99,,2013-01-24 03:22:00,
2013-01-23 21:32:00,-11.0,-18.0,30.69,North,360,2.0,-999.0,70,-99.99,,,-99.99,,2013-01-24 03:32:00,
2013-01-23 21:43:00,-11.0,-18.0,30.69,North,360,2.0,-999.0,70,-99.99,,,-99.99,,2013-01-24 03:43:00,
2013-01-23 21:53:00,-11.0,-18.0,30.70,North,360,0.0,-999.0,71,-99.99,,,-99.99,,2013-01-24 03:53:00,
2013-01-23 22:02:00,-12.0,-19.0,30.70,North,360,0.0,-999.0,71,-99.99,,,-99.99,,2013-01-24 04:02:00,
2013-01-23 22:12:00,-12.0,-19.0,30.70,North,360,0.0,-999.0,71,-99.99,,,-99.99,,2013-01-24 04:12:00,
2013-01-23 22:22:00,-12.0,-18.0,30.70,North,360,1.0,-999.0,72,-99.99,,,-99.99,,2013-01-24 04:22:00,
2013-01-23 22:32:00,-12.0,-18.0,30.71,North,360,1.0,-999.0,72,-99.99,,,-99.99,,2013-01-24 04:32:00,
2013-01-23 22:42:00,-12.0,-18.0,30.71,North,360,1.0,-999.0,72,-99.99,,,-99.99,,2013-01-24 04:42:00,
2013-01-23 22:53:00,-12.0,-18.0,30.71,North,360,0.0,-999.0,72,-99.99,,,-99.99,,2013-01-24 04:53:00,
2013-01-23 23:03:00,-12.0,-18.0,30.72,North,360,0.0,-999.0,73,-99.99,,,-99.99,,2013-01-24 05:03:00,
2013-01-23 23:12:00,-12.0,-18.0,30.72,North,360,0.0,-999.0,73,-99.99,,,-99.99,,2013-01-24 05:12:00,
2013-01-23 23:22:00,-12.0,-18.0,30.73,North,360,0.0,-999.0,73,-99.99,,,-99.99,,2013-01-24 05:22:00,
2013-01-23 23:33:00,-12.0,-18.0,30.73,North,360,0.0,-999.0,73,-99.99,,,-99.99,,2013-01-24 05:33:00,
2013-01-23 23:42:00,-12.0,-18.0,30.73,North,360,0.0,-999.0,73,-99.99,,,-99.99,,2013-01-24 05:42:00,
2013-01-23 23:53:00,-12.0,-18.0,30.73,North,360,0.0,-999.0,73,-99.99,,,-99.99,,2013-01-24 05:53:00,